SCP
0 0 0 0 0 0 0 0 0 0 0 0 0 0 0 0 0 0 0 0 0 0 0 0 0 0 0 0 0 0 0 0 0 0 0 0 0 0 0 0 0 0 0
0 0 0 0 0 0 0 0 0 0 0 0 0 0 0 0 0 0 0 0 0 0 0 0 0 0 0 0 0 0 0 0 0 0 0 0 0 0 0 0 0 0 0
0 0 0 0 0 0 0 0 0 0 0 0 0 0 0 0 0 0 0 0 0 0 0 0 0 0 0 0 0 0 0 0 0 0 0 0 0 0 0 0 0 0 0
0 0 0 0 0 0 0 0 0 0 0 0 0 0 0 0 0 0 0 0 0 0 0 0 0 0 0 0 0 0 0 0 0 0 0 0 0 0 0 0 0 0 0
0 0 0 0 0 0 0 0 0 0 0 0 0 0 0 0 0 0 0 0 0 0 0 0 0 0 0 0 0 0 0 0 0 0 0 0 0 0 0 0 0 0 0
0 0 0 0 0 0 0 0 0 0 0 0 0 0 0 0 0 0 0 0 0 0 0 0 0 0 0 0 0 0 0 0 0 0 0 0 0 0 0 0 0 0 0
0 0 0 0 0 0 0 0 0 0 0 0 0 0 0 0 0 0 0 0 0 0 0 0 0 0 0 0 0 0 0 0 0 0 0 0 0 0 0 0 0 0 0
0 0 0 0 0 0 0 0 0 0 0 0 0 0 0 0 0 0 0 0 0 0 0 0 0 0 0 0 0 0 0 0 0 0 0 0 0 0 0 0 0 0 0
0 0 0 0 0 0 0 0 0 0 0 0 0 0 0 0 0 0 0 0 0 0 0 0 0 0 0 0 0 0 0 0 0 0 0 0 0 0 0 0 0 0 0
0 0 0 0 0 0 0 0 0 0 0 0 0 0 0 0 0 0 0 0 0 0 0 0 0 0 0 0 0 0 0 0 0 0 0 0 0 0 0 0 0 0 0
0 0 0 0 0 0 0 0 0 0 0 0 0 0 0 0 0 0 0 0 0 0 0 0 0 0 0 0 0 0 0 0 0 0 0 0 0 0 0 0 0 0 0
0 0 0 0 0 0 0 0 0 0 0 0 0 0 0 0 0 0 0 0 0 0 0 0 0 0 0 0 0 0 0 0 0 0 0 0 0 0 0 0 0 0 0
0 0 0 0 0 0 0 0 0 0 0 0 0 0 0 0 0 0 0 0 0 0 0 0 0 0 0 0 0 0 0 0 0 0 0 0 0 0 0 0 0 0 0
0 0 0 0 0 0 0 0 0 0 0 0 0 0 0 0 0 0 0 0 0 0 0 0 0 0 0 0 0 0 0 0 0 0 0 0 0 0 0 0 0 0 0
0 0 0 0 0 0 0 0 0 0 0 0 0 0 0 0 0 0 0 0 0 0 0 0 0 0 0 0 0 0 0 0 0 0 0 0 0 0 0 0 0 0 0
0 0 0 0 0 0 0 0 0 0 0 0 0 0 0 0 0 0 0 0 0 0 0 0 0 0 0 0 0 0 0 0 0 0 0 0 0 0 0 0 0 0 0
0 0 0 0 0 0 0 0 0 0 0 0 0 0 0 0 0 0 0 0 0 0 0 0 0 0 0 0 0 0 0 0 0 0 0 0 0 0 0 0 0 0 0
0 0 0 0 0 0 0 0 0 0 0 0 0 0 0 0 0 0 0 0 0 0 0 0 0 0 0 0 0 0 0 0 0 0 0 0 0 0 0 0 0 0 0
0 0 0 0 0 0 0 0 0 0 0 0 0 0 0 0 0 0 0 0 0 0 0 0 0 0 0 0 0 0 0 0 0 0 0 0 0 0 0 0 0 0 0
0 0 0 0 0 0 0 0 0 0 0 0 0 0 0 0 0 0 0 0 0 0 0 0 0 0 0 0 0 0 0 0 0 0 0 0 0 0 0 0 0 0 0
0 0 0 0 0 0 0 0 0 0 0 0 0 0 0 0 0 0 0 0 0 0 0 0 0 0 0 0 0 0 0 0 0 0 0 0 0 0 0 0 0 0 0
0 0 0 0 0 0 0 0 0 0 0 0 0 0 0 0 0 0 0 0 0 0 0 0 0 0 0 0 0 0 0 0 0 0 0 0 0 0 0 0 0 0 0
0 0 0 0 0 0 0 0 0 0 0 0 0 0 0 0 0 0 0 0 0 0 0 0 0 0 0 0 0 0 0 0 0 0 0 0 0 0 0 0 0 0 0
0 0 0 0 0 0 0 0 0 0 0 0 0 0 0 0 0 0 0 0 0 0 0 0 0 0 0 0 0 0 0 0 0 0 0 0 0 0 0 0 0 0 0
0 0 0 0 0 0 0 0 0 0 0 0 0 0 0 0 0 0 0 0 0 0 0 0 0 0 0 0 0 0 0 0 0 0 0 0 0 0 0 0 0 0 0
0 0 0 0 0 0 0 0 0 0 0 0 0 0 0 0 0 0 0 0 0 0 0 0 0 0 0 0 0 0 0 0 0 0 0 0 0 0 0 0 0 0 0
Wind_Speed
8 8 7 6 6 5 6 5 4 5 5 5 3 3 3 3 5 5 4 7 6 5 4 4 3 3 3 3 4 4 5 6 7 8 9 10 11 12 13 13 14 15 16
8 8 7 7 6 6 6 5 5 5 4 3 3 4 3 3 4 5 5 5 6 5 4 3 2 2 2 2 3 3 5 6 7 8 9 10 11 12 13 14 14 15 15
10 8 7 7 6 6 6 4 5 4 4 3 3 3 3 3 3 4 5 4 3 4 4 3 2 1 1 1 2 3 4 6 7 8 9 10 11 12 13 14 15 15 16
11 9 7 7 7 6 5 4 4 4 3 3 2 2 2 2 2 3 4 4 3 3 3 4 2 1 0 1 2 3 5 6 7 8 10 11 12 13 14 15 15 16 17
12 9 8 7 8 6 5 5 4 4 4 3 3 2 2 2 2 2 3 4 4 4 3 4 3 2 1 1 2 4 5 6 8 9 10 11 12 13 14 15 15 16 17
12 10 8 9 9 7 5 5 5 4 4 4 3 2 2 2 2 2 2 3 3 4 3 3 3 2 2 2 3 4 6 7 8 9 10 11 12 13 14 15 16 16 17
12 11 9 9 9 7 7 7 5 6 4 4 3 1 0 2 2 2 2 2 3 4 3 3 2 2 1 2 3 4 6 8 9 9 10 11 12 13 14 15 16 16 17
12 11 11 9 9 8 8 8 7 5 4 4 4 3 1 1 2 2 2 3 3 3 3 3 3 2 1 1 0 3 6 8 9 10 11 11 13 13 14 15 16 17 17
12 11 12 10 10 9 8 8 8 7 5 4 4 4 4 3 2 2 3 3 3 2 3 3 3 2 2 2 1 1 5 7 9 10 11 12 13 14 15 15 16 17 17
12 13 13 12 11 8 9 9 8 6 7 5 4 2 2 3 3 1 2 3 4 3 3 3 3 2 2 2 1 0 3 5 8 9 11 12 13 14 15 15 16 17 17
12 13 13 12 11 9 10 9 8 7 6 5 4 3 2 1 2 3 2 2 2 2 3 3 3 2 2 2 2 0 2 4 7 8 10 11 12 14 15 15 16 17 17
10 13 13 12 11 9 10 10 9 9 7 6 5 4 3 3 3 3 3 3 2 3 3 2 3 3 2 2 2 0 2 4 6 7 9 10 11 13 14 15 16 17 17
9 13 12 12 11 10 10 10 9 9 8 7 6 4 4 3 3 3 3 2 2 2 2 2 2 3 2 2 1 0 2 3 5 6 7 9 10 12 13 14 15 16 17
9 13 13 12 12 12 11 10 8 8 8 7 7 6 4 4 3 3 4 3 2 1 1 2 1 2 2 2 1 1 1 4 5 6 7 8 9 10 12 12 14 15 16
9 13 14 13 13 13 12 11 8 9 8 8 7 7 5 4 3 3 3 4 4 2 3 2 1 1 2 2 1 1 0 3 4 5 6 7 8 9 10 11 13 14 15
11 13 14 14 13 13 13 11 9 9 9 8 7 8 6 4 4 3 3 3 3 4 3 2 2 2 2 2 1 1 1 3 4 5 6 7 8 9 10 11 12 13 14
11 13 14 14 14 14 13 12 11 11 11 10 8 9 8 7 5 4 3 3 3 3 3 1 1 1 2 2 1 0 0 1 1 4 6 7 8 9 9 10 11 12 14
11 12 13 14 14 14 14 14 13 12 12 12 11 10 9 7 7 5 4 4 3 3 3 3 1 1 1 2 1 0 1 1 1 3 5 7 8 8 9 9 10 12 13
10 12 13 13 14 14 14 14 13 12 12 11 11 10 10 9 8 6 6 5 4 3 3 3 2 1 1 1 1 1 2 2 2 2 4 6 8 8 9 9 10 11 12
10 11 12 13 13 13 13 13 13 12 11 9 9 9 9 10 10 9 7 6 5 4 3 3 2 1 1 1 1 1 2 2 2 2 4 6 7 7 9 10 10 11 12
8 9 11 12 12 11 12 13 12 12 11 10 8 8 8 10 10 9 7 6 6 5 4 3 2 2 1 1 1 0 1 2 2 1 2 3 3 2 4 6 8 10 12
7 9 10 11 12 10 15 18 14 11 11 10 9 8 8 9 10 11 10 10 9 8 6 4 3 3 2 2 1 0 1 1 2 2 2 3 2 2 3 2 7 10 12
7 8 9 11 11 12 17 18 17 12 10 10 10 9 7 7 10 8 9 9 7 8 8 6 5 4 4 3 3 2 1 0 2 2 2 3 2 3 3 4 8 10 12
6 7 8 9 10 12 18 19 18 12 9 9 10 10 10 9 9 10 8 7 5 4 5 4 5 4 4 3 4 3 2 1 2 1 2 1 3 4 4 3 7 10 13
5 6 7 8 9 11 17 19 17 9 8 8 9 9 10 10 15 16 11 9 6 4 6 8 8 7 7 7 6 4 2 2 1 1 1 1 2 4 4 2 4 10 13
4 5 5 7 8 10 15 18 17 8 9 8 7 8 12 13 17 17 12 11 9 6 6 6 7 7 6 6 6 4 3 2 1 1 1 1 1 3 4 3 3 4 6
Wind_Direction
155 155 156 156 160 154 156 167 167 159 149 158 163 140 128 115 116 118 121 118 112 119 124 118 108 100 86 66 51 36 25 15 11 8 4 360 358 356 352 348 346 344 343
158 159 155 159 159 155 160 167 161 152 148 149 148 140 141 131 126 128 136 130 128 127 127 120 112 106 83 61 37 23 12 3 1 359 356 353 352 349 345 343 342 341 340
159 160 156 159 158 155 159 161 150 140 139 140 148 144 135 128 130 137 141 144 144 138 136 130 110 108 68 27 10 3 359 353 351 349 346 345 343 341 340 339 338 337 336
161 160 157 159 157 152 154 152 147 139 142 146 148 140 130 128 142 143 141 145 146 148 157 156 148 153 23 344 345 345 345 342 340 339 338 338 338 337 337 336 336 334 333
163 159 158 158 155 151 153 155 149 145 148 148 144 136 137 137 155 141 151 147 142 144 153 169 166 176 215 298 315 328 331 330 329 330 332 333 334 334 334 334 335 334 334
164 158 157 158 155 152 155 154 153 149 147 149 142 136 153 161 158 161 170 152 152 155 155 157 159 192 215 256 296 316 320 321 323 326 330 331 330 331 332 332 333 334 332
166 160 158 160 158 158 163 160 154 155 155 143 119 112 263 190 175 179 178 165 166 164 160 158 159 164 198 242 281 307 315 319 322 325 328 328 328 329 329 330 331 331 332
168 165 161 162 162 160 164 164 155 154 161 153 142 138 161 247 256 201 178 178 180 167 167 167 162 161 154 147 286 309 312 316 320 324 326 327 325 326 327 329 330 332 333
172 169 166 162 165 164 167 168 163 161 165 170 163 157 156 191 202 222 204 186 186 176 175 169 168 168 157 146 162 300 319 316 318 322 325 326 327 327 328 329 331 333 333
175 171 169 166 167 167 167 171 168 163 160 171 188 202 170 148 146 178 240 210 190 181 179 173 169 168 156 149 140 4 325 317 319 323 326 328 329 329 329 331 333 334 335
179 174 173 170 169 170 170 172 167 168 170 169 172 174 182 152 154 147 194 216 210 200 179 172 166 163 156 146 152 61 328 317 319 325 329 331 332 332 332 334 335 335 335
182 177 175 174 172 172 173 173 171 173 174 172 170 167 161 163 181 169 178 189 201 213 189 171 164 161 153 144 146 25 310 317 322 329 332 333 334 334 334 335 336 336 336
184 181 178 177 175 175 172 170 172 175 175 174 175 176 173 178 171 164 161 184 190 200 171 185 173 152 143 134 148 345 303 317 321 329 334 336 335 335 334 335 337 338 338
187 177 179 179 177 174 174 170 171 175 176 177 181 177 174 183 177 165 160 157 168 240 188 204 161 143 136 131 140 43 299 315 321 329 335 337 335 335 336 338 338 338 339
186 178 180 180 178 176 175 172 176 177 176 181 183 182 178 178 174 170 156 153 158 187 228 203 163 144 129 124 110 97 227 300 321 327 332 335 337 338 338 339 339 339 339
187 179 180 180 179 178 177 176 176 176 178 182 180 180 184 178 174 171 167 163 160 168 204 194 153 139 120 120 112 121 242 315 313 319 330 335 336 336 338 340 340 339 339
188 182 180 181 181 181 179 179 180 178 181 183 181 183 186 178 174 174 166 163 168 159 189 206 96 105 112 138 113 96 257 291 294 316 327 331 335 337 340 341 341 340 342
191 183 180 181 183 183 181 181 183 183 184 185 185 182 184 176 175 172 169 172 177 172 169 188 167 129 140 149 121 352 338 343 308 310 336 336 335 336 338 341 343 343 344
192 184 182 184 185 184 183 183 182 184 185 186 184 184 182 177 181 176 171 176 176 166 157 159 167 144 105 90 66 1 343 332 323 334 344 335 330 333 338 340 342 344 345
191 186 185 185 185 183 181 180 179 180 181 181 181 182 181 182 183 178 177 175 163 160 160 152 150 144 112 82 81 4 324 324 322 352 347 334 329 333 335 338 342 345 343
193 185 184 183 181 181 182 178 176 176 176 176 176 178 178 176 176 174 170 169 164 165 163 160 158 135 138 120 186 210 304 323 318 348 338 317 319 317 325 332 337 340 342
191 187 185 182 181 184 179 176 173 173 173 175 176 174 170 170 167 165 163 163 165 169 173 170 174 174 185 177 147 123 68 5 301 313 341 309 322 320 316 312 331 341 344
185 186 187 183 183 180 174 172 171 171 174 176 174 169 165 166 161 159 154 148 154 160 165 167 170 180 171 176 159 156 152 271 260 285 349 300 310 316 316 324 336 343 345
185 186 186 185 180 176 170 169 167 171 172 173 171 169 166 164 164 156 147 142 137 136 149 148 155 158 152 154 159 157 149 43 332 343 38 305 309 316 318 310 328 342 344
190 186 182 181 179 174 169 165 163 168 168 169 166 165 164 166 163 153 148 146 136 123 108 116 116 117 115 113 112 107 99 65 349 309 23 356 312 320 312 299 318 333 338
193 182 181 181 176 173 168 165 163 167 165 163 160 164 165 164 162 158 158 156 154 150 132 117 107 101 98 105 103 117 142 120 50 286 326 8 328 343 322 304 312 316 326